Parkersburg, WV

2:01 PM EDT on May 22, 2017 (GMT -0400)
Wood County Wilson

Weather History for KPKB - October, 2012

Change the Weather History Date:

Monday, October 29, 2012

  Actual Average Record
Temperature  
Mean Temperature 40 °F 51 °F  
Max Temperature 42 °F 62 °F 82 °F (1927)
Min Temperature 37 °F 40 °F 25 °F (2001)
Degree Days  
Heating Degree Days 25 14  
Month to date heating degree days 288 289  
Since 1 July heating degree days 389 365  
Cooling Degree Days 0 0  
Month to date cooling degree days 20 13  
Year to date cooling degree days 1180 949  
Moisture  
Dew Point 38 °F    
Average Humidity 88    
Maximum Humidity 93    
Minimum Humidity 82    
Precipitation  
Precipitation 0.87 in 0.10 in 0.87 in (2012)
Month to date precipitation 2.44 2.66  
Year to date precipitation 35.24 34.53  
Sea Level Pressure  
Sea Level Pressure 29.75 in    
Wind  
Wind Speed 12 mph (NW)    
Max Wind Speed 25 mph    
Max Gust Speed 36 mph    
Visibility 7 miles    
Events Rain    
T = Trace of Precipitation, MM = Missing Value Source: NWS Daily Summary

Daily Weather History Graph

Daily Weather History Graph

Search for Another Location

Airport or City:

Trip Planner

Search our weather history database for the weather conditions in past years. The results will help you decide how hot, cold, wet, or windy it might be!

Date:

Astronomy

Oct. 29, 2012 Rise Set
Actual Time 7:50 AM EDT 6:27 PM EDT
Civil Twilight 7:23 AM EDT 6:55 PM EDT
Nautical Twilight 6:51 AM EDT 7:26 PM EDT
Astronomical Twilight 6:20 AM EDT 7:57 PM EDT
Moon 6:18 PM EDT (10/29) 7:39 AM EDT (10/29)
Length of Visible Light 11h 31m
Length of Day
10h 36m
Full, 100% of the Moon is Illuminated
Oct 29
Full
Oct 29
Full
Nov 6
Last Quarter
Nov 13
New
Nov 20
First Quarter

Hourly Weather History & Observations

Time (EDT) Temp. Windchill Dew Point Humidity Pressure Visibility Wind Dir Wind Speed Gust Speed Precip Events Conditions
12:19 AM 41.0 °F 35.8 °F 37.4 °F 87% 29.91 in 9.0 mi WNW 8.1 mph - 0.01 in Rain Light Rain
12:26 AM 39.2 °F 33.6 °F 37.4 °F 93% 29.91 in 8.0 mi WNW 8.1 mph - 0.01 in Rain Light Rain
12:53 AM 39.9 °F 33.9 °F 37.0 °F 89% 29.92 in 7.0 mi NW 9.2 mph - 0.04 in Rain Light Rain
1:53 AM 39.0 °F 31.4 °F 37.0 °F 93% 29.91 in 9.0 mi WNW 12.7 mph 18.4 mph 0.02 in Rain Light Rain
2:53 AM 39.0 °F 33.4 °F 36.0 °F 89% 29.89 in 9.0 mi NW 8.1 mph - 0.01 in Rain Light Rain
3:53 AM 39.0 °F 32.8 °F 37.0 °F 93% 29.88 in 10.0 mi WNW 9.2 mph 17.3 mph 0.01 in   Overcast
4:53 AM 39.0 °F 33.4 °F 37.0 °F 93% 29.87 in 9.0 mi WNW 8.1 mph - 0.01 in Rain Light Rain
5:53 AM 39.9 °F 35.8 °F 37.9 °F 93% 29.87 in 6.0 mi WNW 5.8 mph - 0.03 in Rain Light Rain
6:53 AM 39.9 °F 34.5 °F 37.9 °F 93% 29.86 in 7.0 mi WNW 8.1 mph - 0.05 in Rain Light Rain
7:53 AM 39.9 °F 35.1 °F 37.9 °F 93% 29.85 in 10.0 mi WNW 6.9 mph - 0.01 in Rain Light Rain
8:00 AM 39.2 °F 33.6 °F 37.4 °F 93% 29.84 in 10.0 mi NW 8.1 mph - 0.01 in Rain Light Rain
8:38 AM 41.0 °F 34.7 °F 37.4 °F 87% 29.83 in 10.0 mi WNW 10.4 mph 17.3 mph 0.01 in Rain Light Rain
8:53 AM 41.0 °F 35.2 °F 37.9 °F 89% 29.85 in 7.0 mi WNW 9.2 mph - 0.01 in Rain Light Rain
9:26 AM 41.0 °F 34.7 °F 39.2 °F 93% 29.83 in 5.0 mi WNW 10.4 mph - 0.03 in Rain Light Rain
9:53 AM 41.0 °F 35.8 °F 39.0 °F 93% 29.83 in 7.0 mi WNW 8.1 mph - 0.04 in Rain Light Rain
10:41 AM 42.8 °F 38.0 °F 39.2 °F 87% 29.81 in 5.0 mi NW 8.1 mph - 0.02 in Rain Light Rain
10:48 AM 42.8 °F 38.0 °F 39.2 °F 87% 29.81 in 6.0 mi NW 8.1 mph - 0.02 in Rain Light Rain
10:53 AM 42.1 °F 37.1 °F 39.0 °F 89% 29.82 in 6.0 mi NW 8.1 mph - 0.03 in Rain Light Rain
11:53 AM 42.1 °F 36.6 °F 39.0 °F 89% 29.80 in 7.0 mi WNW 9.2 mph - 0.03 in Rain Light Rain
12:53 PM 42.1 °F 36.1 °F 39.0 °F 89% 29.78 in 5.0 mi NW 10.4 mph 19.6 mph 0.03 in Rain Light Rain
1:53 PM 42.1 °F 35.2 °F 39.0 °F 89% 29.75 in 7.0 mi WNW 12.7 mph 20.7 mph 0.03 in Rain Light Rain
2:53 PM 41.0 °F 33.1 °F 37.9 °F 89% 29.72 in 6.0 mi NW 15.0 mph 23.0 mph 0.05 in Rain Light Rain
3:53 PM 41.0 °F 33.9 °F 37.9 °F 89% 29.69 in 5.0 mi NW 12.7 mph 21.9 mph 0.04 in Rain Light Rain
4:08 PM 41.0 °F 33.9 °F 37.4 °F 87% 29.67 in 5.0 mi NW 12.7 mph 21.9 mph 0.02 in Rain Light Rain
4:34 PM 41.0 °F 33.5 °F 37.4 °F 87% 29.65 in 7.0 mi NW 13.8 mph 24.2 mph 0.03 in Rain Light Rain
4:53 PM 41.0 °F 35.8 °F 37.9 °F 89% 29.66 in 7.0 mi WNW 8.1 mph 25.3 mph 0.05 in Rain Light Rain
5:53 PM 41.0 °F 33.5 °F 37.9 °F 89% 29.63 in 5.0 mi WNW 13.8 mph 27.6 mph 0.07 in Rain Light Rain
6:53 PM 42.1 °F 33.9 °F 37.9 °F 85% 29.60 in 6.0 mi WNW 17.3 mph 26.5 mph 0.06 in Rain Light Rain
7:53 PM 41.0 °F 33.1 °F 37.9 °F 89% 29.56 in 7.0 mi NNW 15.0 mph 27.6 mph 0.07 in Rain Light Rain
8:53 PM 39.9 °F 31.4 °F 37.0 °F 89% 29.52 in 7.0 mi NNW 16.1 mph 27.6 mph 0.06 in Rain Light Rain
9:53 PM 39.9 °F 30.5 °F 36.0 °F 86% 29.49 in 8.0 mi NNW 19.6 mph 27.6 mph 0.04 in Rain Light Rain
10:53 PM 39.0 °F 28.5 °F 35.1 °F 86% 29.46 in 8.0 mi WNW 23.0 mph 32.2 mph 0.04 in Rain Light Rain
11:51 PM 37.4 °F 26.9 °F 35.6 °F 93% 29.42 in 9.0 mi WNW 20.7 mph 35.7 mph 0.04 in Rain Light Rain
11:53 PM 37.9 °F 26.6 °F 35.1 °F 89% 29.44 in 9.0 mi WNW 25.3 mph 35.7 mph 0.04 in Rain Light Rain